Overview Statistics Trail Chart Weather Telemetry Raw packets
 

This is the latest recevied weather packets stored in our database for station/object N3LF. If no packets are shown the sender has not sent any weather packets the latest 10 day(s).

<< 9 10 11 12 13 14 15 >>
Time Temp. Humidity Pressure Rain* Wind** Luminosity Snow
1788557700 37.78° C 49% 1016 hPa 0 mm - 273 W/m² -
1788557397 36.67° C 51% 1015.9 hPa 0 mm - 290 W/m² -
1788557096 37.78° C 51% 1015.7 hPa 0 mm - 308 W/m² -
1788556791 37.22° C 50% 1015.8 hPa 0 mm - 319 W/m² -
1788556486 37.22° C 49% 1016 hPa 0 mm - 333 W/m² -
1788556182 36.67° C 49% 1015.9 hPa 0 mm - 361 W/m² -
1788555880 37.22° C 49% 1016.2 hPa 0 mm - 398 W/m² -
1788555577 36.67° C 51% 1016.3 hPa 0 mm - 440 W/m² -
1788555272 35.56° C 53% 1016.3 hPa 0 mm - 479 W/m² -
1788554969 34.44° C 57% 1016.4 hPa 0 mm - 353 W/m² -
1788554665 34.44° C 57% 1016.7 hPa 0 mm - 185 W/m² -
1788554361 34.44° C 58% 1016.6 hPa 0 mm - 187 W/m² -
1788554057 35° C 57% 1016.9 hPa 0 mm - 166 W/m² -
1788553752 35° C 57% 1016.8 hPa 0 mm - 161 W/m² -
1788553449 34.44° C 58% 1016.8 hPa 0 mm - 169 W/m² -
1788553144 34.44° C 57% 1017 hPa 0 mm - 173 W/m² -
1788552839 34.44° C 57% 1017 hPa 0 mm - 181 W/m² -
1788552534 34.44° C 57% 1017.1 hPa 0 mm - 194 W/m² -
1788552233 34.44° C 56% 1017.1 hPa 0 mm - 172 W/m² -
1788551927 35° C 56% 1017 hPa 0 mm - 108 W/m² -
1788551626 35° C 55% 1017.1 hPa 0 mm - 110 W/m² -
1788551325 36.11° C 52% 1017.1 hPa 0 mm - 123 W/m² -
1788551020 37.22° C 49% 1017.4 hPa 0 mm - 471 W/m² -
1788550716 37.22° C 49% 1017.3 hPa 0 mm - 564 W/m² -
1788550411 37.22° C 49% 1017.3 hPa 0 mm - 559 W/m² -

* Rain latest hour (hover to see other rain measurements)
** Current wind speed in m/s (hover to see current wind gust speed)